EN

Hourly Weather Alikonovka

Today, 16 January, Saturday

Time Temperature Precipitation Wind Pressure Humidity
00:00 -4°C° 0 mm 2 mps 684 mmHg 82%
01:00 -2°C° 0 mm 1 mps 684 mmHg 81%
02:00 -2°C° 0 mm 1 mps 685 mmHg 80%
03:00 -2°C° 0 mm 1 mps 685 mmHg 77%
04:00 -2°C° 0 mm 1 mps 685 mmHg 76%
05:00 -2°C° 0 mm 1 mps 685 mmHg 74%
06:00 -2°C° 0 mm 1 mps 686 mmHg 73%
07:00 -2°C° 0 mm 1 mps 686 mmHg 72%
08:00 -2°C° 0 mm 1 mps 686 mmHg 72%
09:00 -3°C° 0 mm 2 mps 687 mmHg 71%
10:00 -2°C° 0 mm 2 mps 687 mmHg 69%
11:00 -1°C° 0 mm 2 mps 687 mmHg 66%
12:00 +1°C° 0 mm 2 mps 687 mmHg 63%
13:00 -1°C° 0 mm 2 mps 686 mmHg 67%
14:00 -1°C° 0 mm 2 mps 686 mmHg 71%
15:00 -1°C° 0 mm 2 mps 686 mmHg 78%
16:00 -2°C° 0 mm 3 mps 685 mmHg 81%
17:00 -2°C° 0 mm 3 mps 685 mmHg 83%
18:00 -4°C° 0 mm 3 mps 685 mmHg 86%
19:00 -4°C° 0.1 mm 3 mps 685 mmHg 87%
20:00 -4°C° 0.1 mm 3 mps 684 mmHg 88%
21:00 -4°C° 0.1 mm 3 mps 684 mmHg 89%
22:00 -4°C° 0.1 mm 3 mps 684 mmHg 88%
23:00 -4°C° 0.1 mm 3 mps 683 mmHg 86%

Tomorrow, 17 January, Sunday

Time Temperature Precipitation Wind Pressure Humidity
00:00 -4°C° 0.1 mm 3 mps 683 mmHg 85%
01:00 -4°C° 0 mm 3 mps 682 mmHg 85%
02:00 -4°C° 0 mm 3 mps 682 mmHg 84%
03:00 -4°C° 0 mm 3 mps 681 mmHg 83%
04:00 -4°C° 0 mm 3 mps 680 mmHg 84%
05:00 -2°C° 0 mm 3 mps 680 mmHg 84%
06:00 -3°C° 0 mm 4 mps 679 mmHg 84%
07:00 -3°C° 0 mm 4 mps 679 mmHg 85%
08:00 -2°C° 0 mm 3 mps 678 mmHg 86%
09:00 -2°C° 0 mm 3 mps 678 mmHg 86%
10:00 -2°C° 0 mm 4 mps 678 mmHg 86%
11:00 -1°C° 0 mm 4 mps 678 mmHg 85%
12:00 0°C° 0 mm 4 mps 677 mmHg 84%
13:00 0°C° 0 mm 4 mps 677 mmHg 85%
14:00 0°C° 0 mm 4 mps 677 mmHg 85%
15:00 +1°C° 0 mm 3 mps 677 mmHg 85%
16:00 0°C° 0 mm 3 mps 677 mmHg 86%
17:00 0°C° 0 mm 3 mps 677 mmHg 86%
18:00 -1°C° 0 mm 2 mps 677 mmHg 87%
19:00 -1°C° 0 mm 2 mps 677 mmHg 87%
20:00 -1°C° 0 mm 2 mps 677 mmHg 87%
21:00 -1°C° 0 mm 3 mps 677 mmHg 87%
22:00 -1°C° 0 mm 2 mps 677 mmHg 87%
23:00 -1°C° 0 mm 2 mps 677 mmHg 87%

Day after tomorrow, 18 January, Monday

Time Temperature Precipitation Wind Pressure Humidity
00:00 -1°C° 0 mm 2 mps 677 mmHg 87%
01:00 -1°C° 0 mm 2 mps 677 mmHg 89%
02:00 0°C° 0 mm 1 mps 678 mmHg 90%
03:00 0°C° 0 mm 1 mps 678 mmHg 92%
04:00 0°C° 0.5 mm 1 mps 679 mmHg 93%
05:00 +1°C° 0.5 mm 1 mps 679 mmHg 94%
06:00 -1°C° 0.5 mm 2 mps 680 mmHg 95%
07:00 -2°C° 0.6 mm 2 mps 681 mmHg 95%
08:00 -2°C° 0.6 mm 3 mps 681 mmHg 94%
09:00 -4°C° 0.6 mm 3 mps 682 mmHg 93%
10:00 -4°C° 0.3 mm 3 mps 682 mmHg 89%
11:00 -4°C° 0.3 mm 4 mps 683 mmHg 84%
12:00 -3°C° 0.3 mm 4 mps 683 mmHg 80%
13:00 -4°C° 0.1 mm 4 mps 683 mmHg 76%
14:00 -4°C° 0.1 mm 4 mps 684 mmHg 71%
15:00 -4°C° 0.1 mm 4 mps 684 mmHg 67%
16:00 -5°C° 0 mm 3 mps 684 mmHg 71%
17:00 -4°C° 0 mm 2 mps 685 mmHg 76%
18:00 -3°C° 0 mm 1 mps 685 mmHg 80%
19:00 -3°C° 0 mm 1 mps 685 mmHg 80%
20:00 -4°C° 0 mm 1 mps 685 mmHg 80%
21:00 -4°C° 0 mm 1 mps 686 mmHg 80%
22:00 -4°C° 0 mm 1 mps 686 mmHg 82%
23:00 -6°C° 0 mm 1 mps 686 mmHg 84%

19 January, Tuesday

Time Temperature Precipitation Wind Pressure Humidity
00:00 -6°C° 0 mm 0 mps 686 mmHg 86%
01:00 -6°C° 0 mm 1 mps 686 mmHg 87%
02:00 -6°C° 0 mm 1 mps 686 mmHg 87%
03:00 -6°C° 0 mm 1 mps 687 mmHg 88%
04:00 -7°C° 0.1 mm 1 mps 687 mmHg 90%
05:00 -7°C° 0.1 mm 1 mps 687 mmHg 91%
06:00 -7°C° 0.1 mm 0 mps 687 mmHg 93%
07:00 -7°C° 0.1 mm 1 mps 687 mmHg 91%
08:00 -7°C° 0.1 mm 1 mps 687 mmHg 89%
09:00 -8°C° 0.1 mm 2 mps 687 mmHg 87%
10:00 -6°C° 0 mm 2 mps 687 mmHg 80%
11:00 -5°C° 0 mm 2 mps 687 mmHg 74%
12:00 -4°C° 0 mm 2 mps 686 mmHg 67%
13:00 -5°C° 0 mm 2 mps 686 mmHg 73%
14:00 -5°C° 0 mm 2 mps 686 mmHg 79%
15:00 -6°C° 0 mm 3 mps 686 mmHg 84%
16:00 -6°C° 0.1 mm 2 mps 686 mmHg 87%
17:00 -6°C° 0.1 mm 1 mps 687 mmHg 89%
18:00 -7°C° 0.1 mm 1 mps 687 mmHg 91%
19:00 -8°C° 0 mm 1 mps 687 mmHg 87%
20:00 -8°C° 0 mm 1 mps 687 mmHg 83%
21:00 -9°C° 0 mm 2 mps 688 mmHg 80%
22:00 -10°C° 0 mm 2 mps 688 mmHg 77%
23:00 -10°C° 0 mm 2 mps 688 mmHg 74%

20 January, Wednesday

Time Temperature Precipitation Wind Pressure Humidity
00:00 -10°C° 0 mm 2 mps 688 mmHg 72%
01:00 -10°C° 0 mm 2 mps 688 mmHg 73%
02:00 -9°C° 0 mm 1 mps 688 mmHg 74%
03:00 -10°C° 0 mm 1 mps 689 mmHg 76%
04:00 -10°C° 0 mm 1 mps 689 mmHg 75%
05:00 -10°C° 0 mm 1 mps 689 mmHg 75%
06:00 -10°C° 0 mm 1 mps 689 mmHg 75%
07:00 -10°C° 0 mm 1 mps 690 mmHg 73%
08:00 -9°C° 0 mm 1 mps 690 mmHg 70%
09:00 -9°C° 0 mm 1 mps 690 mmHg 68%
10:00 -8°C° 0 mm 1 mps 690 mmHg 68%
11:00 -7°C° 0 mm 1 mps 691 mmHg 67%
12:00 -6°C° 0 mm 1 mps 691 mmHg 67%
13:00 -6°C° 0 mm 1 mps 691 mmHg 72%
14:00 -6°C° 0 mm 1 mps 690 mmHg 77%
15:00 -6°C° 0 mm 1 mps 690 mmHg 82%
16:00 -7°C° 0.1 mm 1 mps 691 mmHg 86%
17:00 -8°C° 0.1 mm 1 mps 691 mmHg 90%
18:00 -9°C° 0.1 mm 1 mps 692 mmHg 94%
19:00 -9°C° 0 mm 1 mps 692 mmHg 92%
20:00 -9°C° 0 mm 1 mps 692 mmHg 89%
21:00 -10°C° 0 mm 1 mps 693 mmHg 87%
22:00 -10°C° 0 mm 1 mps 693 mmHg 84%
23:00 -10°C° 0 mm 1 mps 693 mmHg 82%

21 January, Thursday

Time Temperature Precipitation Wind Pressure Humidity
00:00 -10°C° 0 mm 1 mps 693 mmHg 80%
01:00 -10°C° 0 mm 1 mps 693 mmHg 77%
02:00 -10°C° 0 mm 1 mps 694 mmHg 74%
03:00 -10°C° 0 mm 1 mps 694 mmHg 71%
04:00 -12°C° 0 mm 2 mps 694 mmHg 69%
05:00 -12°C° 0 mm 2 mps 694 mmHg 67%
06:00 -12°C° 0 mm 2 mps 694 mmHg 65%
07:00 -10°C° 0 mm 2 mps 695 mmHg 64%
08:00 -10°C° 0 mm 2 mps 695 mmHg 63%
09:00 -9°C° 0 mm 2 mps 696 mmHg 61%
10:00 -7°C° 0 mm 2 mps 696 mmHg 58%
11:00 -6°C° 0 mm 2 mps 696 mmHg 55%
12:00 -4°C° 0 mm 2 mps 696 mmHg 52%
13:00 -4°C° 0 mm 2 mps 696 mmHg 57%
14:00 -4°C° 0 mm 2 mps 696 mmHg 61%
15:00 -5°C° 0 mm 3 mps 696 mmHg 66%
16:00 -5°C° 0 mm 2 mps 696 mmHg 68%
17:00 -6°C° 0 mm 2 mps 696 mmHg 70%
18:00 -7°C° 0 mm 2 mps 697 mmHg 72%
19:00 -7°C° 0 mm 2 mps 697 mmHg 68%
20:00 -7°C° 0 mm 2 mps 697 mmHg 64%
21:00 -7°C° 0 mm 2 mps 697 mmHg 60%
22:00 -7°C° 0 mm 2 mps 696 mmHg 57%
23:00 -7°C° 0 mm 2 mps 696 mmHg 54%
Show more